WetterOnline ( https://www.wetteronline.de )

Wetter aktuell Harz (in 600m)

Aktuelles Wetter: Braunlage (609m)

6-stündlich | Neueste Meldungen
Ortszeit Temperatur Wetter
Fr, 24.05. 2:00 8.3° C wolkig
Do, 23.05. 20:00 15.4° C bedeckt
Do, 23.05. 14:00 16.3° C wolkig
Do, 23.05. 8:00 10.9° C wolkig
Do, 23.05. 2:00 6.8° C wolkig
Mi, 22.05. 20:00 9.2° C wolkenlos
Mi, 22.05. 14:00 8.6° C bedeckt
Mi, 22.05. 8:00 8.0° C bedeckt
Ortszeit Temperatur Wetter
Fr, 24.05. 7:00 10.0° C bedeckt
Fr, 24.05. 6:40 9.8° C bedeckt
Fr, 24.05. 6:30 8.0° C bedeckt
Fr, 24.05. 6:20 8.0° C bedeckt
Fr, 24.05. 6:10 7.3° C bedeckt
Fr, 24.05. 6:00 7.4° C bedeckt
Fr, 24.05. 5:50 7.4° C bedeckt
Fr, 24.05. 5:30 6.8° C leicht bewölkt
Fr, 24.05. 5:00 7.5° C fast wolkenlos
Fr, 24.05. 4:30 7.5° C wolkig
Fr, 24.05. 4:00 7.7° C leicht bewölkt
Ortszeit Relative Feuchte Sichtweite
Fr, 24.05. 2:00 77% >70 km
Do, 23.05. 20:00 50% 55 km
Do, 23.05. 14:00 39% >70 km
Do, 23.05. 8:00 62% >70 km
Do, 23.05. 2:00 86% 30 km
Mi, 22.05. 20:00 76% 50 km
Mi, 22.05. 14:00 91% 22 km
Mi, 22.05. 8:00 94% 8 km
Ortszeit Relative Feuchte Sichtweite
Fr, 24.05. 7:00 79% 60 km
Fr, 24.05. 6:40 81% -
Fr, 24.05. 6:30 87% 50 km
Fr, 24.05. 6:20 87% -
Fr, 24.05. 6:10 89% -
Fr, 24.05. 6:00 87% 55 km
Fr, 24.05. 5:50 87% -
Fr, 24.05. 5:30 88% 55 km
Fr, 24.05. 5:00 82% 60 km
Fr, 24.05. 4:30 82% 65 km
Fr, 24.05. 4:00 84% 65 km
Ortszeit Niederschlagsmenge Niederschlagsart
Fr, 24.05. 2:00 0.0 l/m2 in 6 Std. -
Do, 23.05. 20:00 0.0 l/m2 in 12 Std. -
Do, 23.05. 14:00 0.0 l/m2 in 6 Std. -
Do, 23.05. 8:00 0.0 l/m2 in 12 Std. -
Do, 23.05. 2:00 0.0 l/m2 in 6 Std. -
Mi, 22.05. 20:00 0.1 l/m2 in 12 Std. Regen
Mi, 22.05. 14:00 0.1 l/m2 in 6 Std. Sprühregen
Mi, 22.05. 8:00 0.6 l/m2 in 12 Std. Sprühregen
Ortszeit Niederschlagsmenge Niederschlagsart
Fr, 24.05. 7:00 0.0 l/m2 in 1 Std. -
Fr, 24.05. 6:40 keine Meldung -
Fr, 24.05. 6:30 0.0 l/m2 in 1 Std. -
Fr, 24.05. 6:20 keine Meldung -
Fr, 24.05. 6:10 keine Meldung -
Fr, 24.05. 6:00 0.0 l/m2 in 1 Std. -
Fr, 24.05. 5:50 keine Meldung -
Fr, 24.05. 5:30 0.0 l/m2 in 1 Std. -
Fr, 24.05. 5:00 0.0 l/m2 in 1 Std. -
Fr, 24.05. 4:30 0.0 l/m2 in 1 Std. -
Fr, 24.05. 4:00 0.0 l/m2 in 1 Std. -
Ortszeit Stärke Spitze Richtung
km/h Bft. km/h Grad Sektor
Fr, 24.05. 2:00 4 1 11 280° W
Do, 23.05. 20:00 4 1 29 270° W
Do, 23.05. 14:00 11 2 25 240° SW
Do, 23.05. 8:00 6 1 17 310° NW
Do, 23.05. 2:00 9 2 17 300° NW
Mi, 22.05. 20:00 7 2 40 290° W
Mi, 22.05. 14:00 15 3 37 310° NW
Mi, 22.05. 8:00 14 3 36 300° NW
Ortszeit Stärke Spitze Richtung
km/h Bft. km/h Grad Sektor
Fr, 24.05. 7:00 4 1 4 250° W
Fr, 24.05. 6:40 2 1 - 250° W
Fr, 24.05. 6:30 0 0 4 - -
Fr, 24.05. 6:20 2 1 - 340° N
Fr, 24.05. 6:10 0 0 - 30° NO
Fr, 24.05. 6:00 0 0 7 - -
Fr, 24.05. 5:50 0 0 - 250° W
Fr, 24.05. 5:30 2 1 6 280° W
Fr, 24.05. 5:00 4 1 7 290° W
Fr, 24.05. 4:30 4 1 7 280° W
Fr, 24.05. 4:00 4 1 7 290° W
Ortszeit Untergrenze Bedeckung Gattung
total tief tief mittel hoch
Fr, 24.05. 2:00 1500 m 7/8 5/8 - - -
Do, 23.05. 20:00 5400 m 8/8 8/8 - - -
Do, 23.05. 14:00 6000 m 7/8 6/8 - - -
Do, 23.05. 8:00 5400 m 8/8 8/8 - - -
Do, 23.05. 2:00 9000 m 8/8 0/8 - - -
Mi, 22.05. 20:00 870 m 0/8 0/8 - - -
Mi, 22.05. 14:00 90 m 8/8 8/8 - - -
Mi, 22.05. 8:00 90 m 8/8 8/8 - - -
Ortszeit Bedeckungsgrad in Achtel und Wolkenuntergrenze
Fr, 24.05. 7:00 8(4800m) 8(6300m)
Fr, 24.05. 6:40 8(4800m) 8(6300m)
Fr, 24.05. 6:30 8(4800m) 8(6300m)
Fr, 24.05. 6:20 8(4800m) 8(6300m)
Fr, 24.05. 6:10 8(4800m) 8(6300m)
Fr, 24.05. 6:00 7(4800m) 8(5700m)
Fr, 24.05. 5:50 7(4800m) 8(5700m)
Fr, 24.05. 5:30 1(5100m) 3(7200m) 5(6900m)
Fr, 24.05. 5:00 1(6600m)
Fr, 24.05. 4:30 5(6300m) 6(7200m)
Fr, 24.05. 4:00 3(1500m) 5(5100m) 4(6900m)
Ortszeit Luftdruck NN (hPa) Tendenz (hPa in 3 Std.)
Fr, 24.05. 2:00 1018 - 0,6
Do, 23.05. 20:00 1016 - 0,6
Do, 23.05. 14:00 1018 - 0,7
Do, 23.05. 8:00 1019 + 0,1
Do, 23.05. 2:00 1020 + 0,3
Mi, 22.05. 20:00 1019 + 0,4
Mi, 22.05. 14:00 1017 + 1,2
Mi, 22.05. 8:00 1015 + 1,4
Ortszeit Luftdruck NN (hPa) Tendenz (hPa in 3 Std.)
Fr, 24.05. 7:00 1016 - 0,5
Fr, 24.05. 6:40 1016 keine Meldung
Fr, 24.05. 6:30 1017 - 0,7
Fr, 24.05. 6:20 1017 keine Meldung
Fr, 24.05. 6:10 1017 keine Meldung
Fr, 24.05. 6:00 1017 - 0,7
Fr, 24.05. 5:50 1017 keine Meldung
Fr, 24.05. 5:30 1017 - 1,1
Fr, 24.05. 5:00 1017 - 1,0
Fr, 24.05. 4:30 1017 - 1,0
Fr, 24.05. 4:00 1017 - 0,9
Ortszeit Schneehöhe (cm)
Fr, 24.05. 2:00 -
Do, 23.05. 20:00 -
Do, 23.05. 14:00 -
Do, 23.05. 8:00 -
Do, 23.05. 2:00 -
Mi, 22.05. 20:00 -
Mi, 22.05. 14:00 -
Mi, 22.05. 8:00 -
Ortszeit Schneehöhe (cm)
Fr, 24.05. 7:00 -
Fr, 24.05. 6:40 -
Fr, 24.05. 6:30 -
Fr, 24.05. 6:20 -
Fr, 24.05. 6:10 -
Fr, 24.05. 6:00 -
Fr, 24.05. 5:50 -
Fr, 24.05. 5:30 -
Fr, 24.05. 5:00 -
Fr, 24.05. 4:30 -
Fr, 24.05. 4:00 -
Link zu dieser Seite / Seite empfehlen

Das Wetter in ...